Year,Month,Day,Hour,Minute,Value (Times are PST for temperature in C)
2015,07,29,00,00,15.90
2015,07,29,00,01,15.90
2015,07,29,00,02,15.90
2015,07,29,00,03,15.90
2015,07,29,00,04,15.90
2015,07,29,00,05,15.90
2015,07,29,00,06,15.90
2015,07,29,00,07,15.90
2015,07,29,00,08,15.80
2015,07,29,00,09,15.80
2015,07,29,00,10,15.80
2015,07,29,00,11,15.80
2015,07,29,00,12,15.80
2015,07,29,00,13,15.80
2015,07,29,00,14,15.80
2015,07,29,00,15,15.80
2015,07,29,00,16,15.80
2015,07,29,00,17,15.70
2015,07,29,00,18,15.70
2015,07,29,00,19,15.70
2015,07,29,00,20,15.70
2015,07,29,00,21,15.70
2015,07,29,00,22,15.70
2015,07,29,00,23,15.60
2015,07,29,00,24,15.60
2015,07,29,00,25,15.60
2015,07,29,00,26,15.60
2015,07,29,00,27,15.60
2015,07,29,00,28,15.60
2015,07,29,00,29,15.60
2015,07,29,00,30,15.60
2015,07,29,00,31,15.60
2015,07,29,00,32,15.50
2015,07,29,00,33,15.50
2015,07,29,00,34,15.50
2015,07,29,00,35,15.40
2015,07,29,00,36,15.40
2015,07,29,00,37,15.30
2015,07,29,00,38,15.30
2015,07,29,00,39,15.30
2015,07,29,00,40,15.20
2015,07,29,00,41,15.10
2015,07,29,00,42,15.10
2015,07,29,00,43,15.00
2015,07,29,00,44,14.90
2015,07,29,00,45,14.90
2015,07,29,00,46,14.80
2015,07,29,00,47,14.80
2015,07,29,00,48,14.70
2015,07,29,00,49,14.70
2015,07,29,00,50,14.60
2015,07,29,00,51,14.60
2015,07,29,00,52,14.50
2015,07,29,00,53,14.50
2015,07,29,00,54,14.40
2015,07,29,00,55,14.40
2015,07,29,00,56,14.40
2015,07,29,00,57,14.30
2015,07,29,00,58,14.30
2015,07,29,00,59,14.30
2015,07,29,01,00,14.30
2015,07,29,01,01,14.20
2015,07,29,01,02,14.20
2015,07,29,01,03,14.20
2015,07,29,01,04,14.20
2015,07,29,01,05,14.10
2015,07,29,01,06,14.10
2015,07,29,01,07,14.10
2015,07,29,01,08,14.10
2015,07,29,01,09,14.00
2015,07,29,01,10,14.00
2015,07,29,01,11,14.00
2015,07,29,01,12,14.00
2015,07,29,01,13,13.90
2015,07,29,01,14,13.90
2015,07,29,01,15,13.90
2015,07,29,01,16,13.90
2015,07,29,01,17,13.80
2015,07,29,01,18,13.80
2015,07,29,01,19,13.80
2015,07,29,01,20,13.80
2015,07,29,01,21,13.80
2015,07,29,01,22,13.80
2015,07,29,01,23,13.70
2015,07,29,01,24,13.70
2015,07,29,01,25,13.70
2015,07,29,01,26,13.70
2015,07,29,01,27,13.70
2015,07,29,01,28,13.70
2015,07,29,01,29,13.60
2015,07,29,01,30,13.60
2015,07,29,01,31,13.60
2015,07,29,01,32,13.60
2015,07,29,01,33,13.50
2015,07,29,01,34,13.50
2015,07,29,01,35,13.50
2015,07,29,01,36,13.40
2015,07,29,01,37,13.40
2015,07,29,01,38,13.40
2015,07,29,01,39,13.40
2015,07,29,01,40,13.40
2015,07,29,01,41,13.40
2015,07,29,01,42,13.30
2015,07,29,01,43,13.30
2015,07,29,01,44,13.30
2015,07,29,01,45,13.30
2015,07,29,01,46,13.30
2015,07,29,01,47,13.30
2015,07,29,01,48,13.30
2015,07,29,01,49,13.30
2015,07,29,01,50,13.30
2015,07,29,01,51,13.30
2015,07,29,01,52,13.20
2015,07,29,01,53,13.20
2015,07,29,01,54,13.20
2015,07,29,01,55,13.20
2015,07,29,01,56,13.20
2015,07,29,01,57,13.20
2015,07,29,01,58,13.10
2015,07,29,01,59,13.10
2015,07,29,02,00,13.10
2015,07,29,02,01,13.10
2015,07,29,02,02,13.00
2015,07,29,02,03,13.00
2015,07,29,02,04,13.00
2015,07,29,02,05,12.90
2015,07,29,02,06,12.90
2015,07,29,02,07,12.90
2015,07,29,02,08,12.90
2015,07,29,02,09,12.80
2015,07,29,02,10,12.80
2015,07,29,02,11,12.80
2015,07,29,02,12,12.80
2015,07,29,02,13,12.80
2015,07,29,02,14,12.80
2015,07,29,02,15,12.70
2015,07,29,02,16,12.70
2015,07,29,02,17,12.70
2015,07,29,02,18,12.70
2015,07,29,02,19,12.70
2015,07,29,02,20,12.70
2015,07,29,02,21,12.70
2015,07,29,02,22,12.60
2015,07,29,02,23,12.60
2015,07,29,02,24,12.60
2015,07,29,02,25,12.60
2015,07,29,02,26,12.60
2015,07,29,02,27,12.50
2015,07,29,02,28,12.50
2015,07,29,02,29,12.50
2015,07,29,02,30,12.50
2015,07,29,02,31,12.50
2015,07,29,02,32,12.40
2015,07,29,02,33,12.40
2015,07,29,02,34,12.40
2015,07,29,02,35,12.40
2015,07,29,02,36,12.40
2015,07,29,02,37,12.40
2015,07,29,02,38,12.40
2015,07,29,02,39,12.30
2015,07,29,02,40,12.30
2015,07,29,02,41,12.30
2015,07,29,02,42,12.30
2015,07,29,02,43,12.30
2015,07,29,02,44,12.30
2015,07,29,02,45,12.30
2015,07,29,02,46,12.30
2015,07,29,02,47,12.30
2015,07,29,02,48,12.30
2015,07,29,02,49,12.30
2015,07,29,02,50,12.30
2015,07,29,02,51,12.30
2015,07,29,02,52,12.20
2015,07,29,02,53,12.20
2015,07,29,02,54,12.20
2015,07,29,02,55,12.20
2015,07,29,02,56,12.20
2015,07,29,02,57,12.20
2015,07,29,02,58,12.20
2015,07,29,02,59,12.20
2015,07,29,03,00,12.20
2015,07,29,03,01,12.20
2015,07,29,03,02,12.20
2015,07,29,03,03,12.20
2015,07,29,03,04,12.20
2015,07,29,03,05,12.20
2015,07,29,03,06,12.20
2015,07,29,03,07,12.20
2015,07,29,03,08,12.20
2015,07,29,03,09,12.20
2015,07,29,03,10,12.20
2015,07,29,03,11,12.20
2015,07,29,03,12,12.20
2015,07,29,03,13,12.20
2015,07,29,03,14,12.10
2015,07,29,03,15,12.10
2015,07,29,03,16,12.10
2015,07,29,03,17,12.10
2015,07,29,03,18,12.10
2015,07,29,03,19,12.10
2015,07,29,03,20,12.10
2015,07,29,03,21,12.10
2015,07,29,03,22,12.10
2015,07,29,03,23,12.10
2015,07,29,03,24,12.10
2015,07,29,03,25,12.10
2015,07,29,03,26,12.10
2015,07,29,03,27,12.10
2015,07,29,03,28,12.20
2015,07,29,03,29,12.20
2015,07,29,03,30,12.10
2015,07,29,03,31,12.20
2015,07,29,03,32,12.20
2015,07,29,03,33,12.20
2015,07,29,03,34,12.20
2015,07,29,03,35,12.10
2015,07,29,03,36,12.10
2015,07,29,03,37,12.10
2015,07,29,03,38,12.10
2015,07,29,03,39,12.10
2015,07,29,03,40,12.10
2015,07,29,03,41,12.10
2015,07,29,03,42,12.10
2015,07,29,03,43,12.10
2015,07,29,03,44,12.10
2015,07,29,03,45,12.10
2015,07,29,03,46,12.10
2015,07,29,03,47,12.10
2015,07,29,03,48,12.00
2015,07,29,03,49,12.00
2015,07,29,03,50,12.00
2015,07,29,03,51,12.00
2015,07,29,03,52,12.00
2015,07,29,03,53,11.90
2015,07,29,03,54,11.90
2015,07,29,03,55,11.90
2015,07,29,03,56,11.90
2015,07,29,03,57,11.90
2015,07,29,03,58,11.90
2015,07,29,03,59,11.90
2015,07,29,04,00,11.80
2015,07,29,04,01,11.80
2015,07,29,04,02,11.80
2015,07,29,04,03,11.80
2015,07,29,04,04,11.80
2015,07,29,04,05,11.80
2015,07,29,04,06,11.80
2015,07,29,04,07,11.80
2015,07,29,04,08,11.80
2015,07,29,04,09,11.80
2015,07,29,04,10,11.80
2015,07,29,04,11,11.80
2015,07,29,04,12,11.80
2015,07,29,04,13,11.80
2015,07,29,04,14,11.80
2015,07,29,04,15,11.80
2015,07,29,04,16,11.80
2015,07,29,04,17,11.80
2015,07,29,04,18,11.80
2015,07,29,04,19,11.80
2015,07,29,04,20,11.80
2015,07,29,04,21,11.70
2015,07,29,04,22,11.80
2015,07,29,04,23,11.70
2015,07,29,04,24,11.80
2015,07,29,04,25,11.80
2015,07,29,04,26,11.70
2015,07,29,04,27,11.70
2015,07,29,04,28,11.70
2015,07,29,04,29,11.70
2015,07,29,04,30,11.70
2015,07,29,04,31,11.70
2015,07,29,04,32,11.70
2015,07,29,04,33,11.70
2015,07,29,04,34,11.70
2015,07,29,04,35,11.60
2015,07,29,04,36,11.60
2015,07,29,04,37,11.60
2015,07,29,04,38,11.60
2015,07,29,04,39,11.60
2015,07,29,04,40,11.60
2015,07,29,04,41,11.60
2015,07,29,04,42,11.60
2015,07,29,04,43,11.60
2015,07,29,04,44,11.60
2015,07,29,04,45,11.60
2015,07,29,04,46,11.60
2015,07,29,04,47,11.60
2015,07,29,04,48,11.60
2015,07,29,04,49,11.60
2015,07,29,04,50,11.60
2015,07,29,04,51,11.60
2015,07,29,04,52,11.60
2015,07,29,04,53,11.60
2015,07,29,04,54,11.60
2015,07,29,04,55,11.60
2015,07,29,04,56,11.60
2015,07,29,04,57,11.60
2015,07,29,04,58,11.60
2015,07,29,04,59,11.60
2015,07,29,05,00,11.60
2015,07,29,05,01,11.60
2015,07,29,05,02,11.60
2015,07,29,05,03,11.60
2015,07,29,05,04,11.60
2015,07,29,05,05,11.60
2015,07,29,05,06,11.60
2015,07,29,05,07,11.60
2015,07,29,05,08,11.60
2015,07,29,05,09,11.60
2015,07,29,05,10,11.60
2015,07,29,05,11,11.60
2015,07,29,05,12,11.60
2015,07,29,05,13,11.60
2015,07,29,05,14,11.60
2015,07,29,05,15,11.50
2015,07,29,05,16,11.50
2015,07,29,05,17,11.50
2015,07,29,05,18,11.40
2015,07,29,05,19,11.40
2015,07,29,05,20,11.40
2015,07,29,05,21,11.40
2015,07,29,05,22,11.40
2015,07,29,05,23,11.30
2015,07,29,05,24,11.30
2015,07,29,05,25,11.30
2015,07,29,05,26,11.30
2015,07,29,05,27,11.40
2015,07,29,05,28,11.40
2015,07,29,05,29,11.40
2015,07,29,05,30,11.40
2015,07,29,05,31,11.40
2015,07,29,05,32,11.40
2015,07,29,05,33,11.40
2015,07,29,05,34,11.40
2015,07,29,05,35,11.40
2015,07,29,05,36,11.40
2015,07,29,05,37,11.40
2015,07,29,05,38,11.40
2015,07,29,05,39,11.40
2015,07,29,05,40,11.40
2015,07,29,05,41,11.40
2015,07,29,05,42,11.40
2015,07,29,05,43,11.50
2015,07,29,05,44,11.50
2015,07,29,05,45,11.50
2015,07,29,05,46,11.50
2015,07,29,05,47,11.50
2015,07,29,05,48,11.50
2015,07,29,05,49,11.60
2015,07,29,05,50,11.60
2015,07,29,05,51,11.60
2015,07,29,05,52,11.60
2015,07,29,05,53,11.60
2015,07,29,05,54,11.60
2015,07,29,05,55,11.60
2015,07,29,05,56,11.60
2015,07,29,05,57,11.60
2015,07,29,05,58,11.60
2015,07,29,05,59,11.60
2015,07,29,06,00,11.60
2015,07,29,06,01,11.60
2015,07,29,06,02,11.70
2015,07,29,06,03,11.70
2015,07,29,06,04,11.70
2015,07,29,06,05,11.70
2015,07,29,06,06,11.70
2015,07,29,06,07,11.70
2015,07,29,06,08,11.70
2015,07,29,06,09,11.80
2015,07,29,06,10,11.80
2015,07,29,06,11,11.80
2015,07,29,06,12,11.80
2015,07,29,06,13,11.80
2015,07,29,06,14,11.80
2015,07,29,06,15,11.80
2015,07,29,06,16,11.90
2015,07,29,06,17,11.90
2015,07,29,06,18,11.90
2015,07,29,06,19,11.90
2015,07,29,06,20,11.90
2015,07,29,06,21,11.90
2015,07,29,06,22,11.90
2015,07,29,06,23,11.90
2015,07,29,06,24,11.90
2015,07,29,06,25,11.90
2015,07,29,06,26,11.90
2015,07,29,06,27,11.90
2015,07,29,06,28,11.90
2015,07,29,06,29,11.90
2015,07,29,06,30,11.90
2015,07,29,06,31,11.90
2015,07,29,06,32,11.90
2015,07,29,06,33,11.90
2015,07,29,06,34,12.00
2015,07,29,06,35,12.00
2015,07,29,06,36,12.00
2015,07,29,06,37,12.00
2015,07,29,06,38,12.00
2015,07,29,06,39,12.00
2015,07,29,06,40,12.00
2015,07,29,06,41,12.00
2015,07,29,06,42,12.00
2015,07,29,06,43,12.10
2015,07,29,06,44,12.10
2015,07,29,06,45,12.10
2015,07,29,06,46,12.10
2015,07,29,06,47,12.10
2015,07,29,06,48,12.20
2015,07,29,06,49,12.20
2015,07,29,06,50,12.20
2015,07,29,06,51,12.20
2015,07,29,06,52,12.20
2015,07,29,06,53,12.20
2015,07,29,06,54,12.20
2015,07,29,06,55,12.30
2015,07,29,06,56,12.30
2015,07,29,06,57,12.30
2015,07,29,06,58,12.30
2015,07,29,06,59,12.40
2015,07,29,07,00,12.40
2015,07,29,07,01,12.40
2015,07,29,07,02,12.50
2015,07,29,07,03,12.50
2015,07,29,07,04,12.50
2015,07,29,07,05,12.60
2015,07,29,07,06,12.60
2015,07,29,07,07,12.60
2015,07,29,07,08,12.70
2015,07,29,07,09,12.70
2015,07,29,07,10,12.70
2015,07,29,07,11,12.70
2015,07,29,07,12,12.80
2015,07,29,07,13,12.80
2015,07,29,07,14,12.80
2015,07,29,07,15,12.90
2015,07,29,07,16,12.90
2015,07,29,07,17,12.90
2015,07,29,07,18,12.90
2015,07,29,07,19,13.00
2015,07,29,07,20,13.00
2015,07,29,07,21,13.10
2015,07,29,07,22,13.10
2015,07,29,07,23,13.20
2015,07,29,07,24,13.30
2015,07,29,07,25,13.30
2015,07,29,07,26,13.30
2015,07,29,07,27,13.40
2015,07,29,07,28,13.50
2015,07,29,07,29,13.50
2015,07,29,07,30,13.60
2015,07,29,07,31,13.60
2015,07,29,07,32,13.60
2015,07,29,07,33,13.60
2015,07,29,07,34,13.70
2015,07,29,07,35,13.70
2015,07,29,07,36,13.80
2015,07,29,07,37,13.80
2015,07,29,07,38,13.80
2015,07,29,07,39,13.90
2015,07,29,07,40,13.90
2015,07,29,07,41,13.90
2015,07,29,07,42,13.90
2015,07,29,07,43,13.90
2015,07,29,07,44,14.00
2015,07,29,07,45,14.00
2015,07,29,07,46,14.00
2015,07,29,07,47,14.10
2015,07,29,07,48,14.10
2015,07,29,07,49,14.20
2015,07,29,07,50,14.20
2015,07,29,07,51,14.20
2015,07,29,07,52,14.30
2015,07,29,07,53,14.30
2015,07,29,07,54,14.40
2015,07,29,07,55,14.40
2015,07,29,07,56,14.40
2015,07,29,07,57,14.40
2015,07,29,07,58,14.50
2015,07,29,07,59,14.50
2015,07,29,08,00,14.50
2015,07,29,08,01,14.60
2015,07,29,08,02,14.60
2015,07,29,08,03,14.60
2015,07,29,08,04,14.70
2015,07,29,08,05,14.70
2015,07,29,08,06,14.70
2015,07,29,08,07,14.70
2015,07,29,08,08,14.80
2015,07,29,08,09,14.80
2015,07,29,08,10,14.80
2015,07,29,08,11,14.80
2015,07,29,08,12,14.90
2015,07,29,08,13,14.90
2015,07,29,08,14,14.90
2015,07,29,08,15,15.00
2015,07,29,08,16,15.10
2015,07,29,08,17,15.20
2015,07,29,08,18,15.30
2015,07,29,08,19,15.40
2015,07,29,08,20,15.40
2015,07,29,08,21,15.50
2015,07,29,08,22,15.50
2015,07,29,08,23,15.60
2015,07,29,08,24,15.60
2015,07,29,08,25,15.60
2015,07,29,08,26,15.70
2015,07,29,08,27,15.70
2015,07,29,08,28,15.70
2015,07,29,08,29,15.70
2015,07,29,08,30,15.70
2015,07,29,08,31,15.70
2015,07,29,08,32,15.70
2015,07,29,08,33,15.80
2015,07,29,08,34,15.80
2015,07,29,08,35,15.80
2015,07,29,08,36,15.90
2015,07,29,08,37,15.90
2015,07,29,08,38,16.00
2015,07,29,08,39,16.00
2015,07,29,08,40,16.10
2015,07,29,08,41,16.20
2015,07,29,08,42,16.20
2015,07,29,08,43,16.20
2015,07,29,08,44,16.30
2015,07,29,08,45,16.30
2015,07,29,08,46,16.30
2015,07,29,08,47,16.40
2015,07,29,08,48,16.50
2015,07,29,08,49,16.50
2015,07,29,08,50,16.60
2015,07,29,08,51,16.70
2015,07,29,08,52,16.70
2015,07,29,08,53,16.80
2015,07,29,08,54,16.80
2015,07,29,08,55,16.80
2015,07,29,08,56,16.80
2015,07,29,08,57,16.90
2015,07,29,08,58,17.00
2015,07,29,08,59,17.00
2015,07,29,09,00,17.10
2015,07,29,09,01,17.20
2015,07,29,09,02,17.30
2015,07,29,09,03,17.40
2015,07,29,09,04,17.40
2015,07,29,09,05,17.50
2015,07,29,09,06,17.50
2015,07,29,09,07,17.60
2015,07,29,09,08,17.60
2015,07,29,09,09,17.60
2015,07,29,09,10,17.70
2015,07,29,09,11,17.80
2015,07,29,09,12,17.80
2015,07,29,09,13,17.90
2015,07,29,09,14,17.90
2015,07,29,09,15,18.00
2015,07,29,09,16,18.10
2015,07,29,09,17,18.10
2015,07,29,09,18,18.20
2015,07,29,09,19,18.20
2015,07,29,09,20,18.30
2015,07,29,09,21,18.30
2015,07,29,09,22,18.40
2015,07,29,09,23,18.40
2015,07,29,09,24,18.50
2015,07,29,09,25,18.50
2015,07,29,09,26,18.60
2015,07,29,09,27,18.60
2015,07,29,09,28,18.60
2015,07,29,09,29,18.60
2015,07,29,09,30,18.70
2015,07,29,09,31,18.70
2015,07,29,09,32,18.70
2015,07,29,09,33,18.70
2015,07,29,09,34,18.70
2015,07,29,09,35,18.70
2015,07,29,09,36,18.70
2015,07,29,09,37,18.70
2015,07,29,09,38,18.80
2015,07,29,09,39,18.80
2015,07,29,09,40,18.80
2015,07,29,09,41,18.80
2015,07,29,09,42,18.80
2015,07,29,09,43,18.80
2015,07,29,09,44,18.80
2015,07,29,09,45,18.80
2015,07,29,09,46,18.80
2015,07,29,09,47,18.80
2015,07,29,09,48,18.80
2015,07,29,09,49,18.80
2015,07,29,09,50,18.80
2015,07,29,09,51,18.80
2015,07,29,09,52,18.80
2015,07,29,09,53,18.80
2015,07,29,09,54,18.80
2015,07,29,09,55,18.80
2015,07,29,09,56,18.80
2015,07,29,09,57,18.80
2015,07,29,09,58,18.80
2015,07,29,09,59,18.80
2015,07,29,10,00,18.70
2015,07,29,10,01,18.70
2015,07,29,10,02,18.70
2015,07,29,10,03,18.80
2015,07,29,10,04,18.80
2015,07,29,10,05,18.80
2015,07,29,10,06,18.80
2015,07,29,10,07,18.90
2015,07,29,10,08,18.90
2015,07,29,10,09,19.00
2015,07,29,10,10,19.00
2015,07,29,10,11,19.10
2015,07,29,10,12,19.20
2015,07,29,10,13,19.20
2015,07,29,10,14,19.30
2015,07,29,10,15,19.30
2015,07,29,10,16,19.30
2015,07,29,10,17,19.40
2015,07,29,10,18,19.50
2015,07,29,10,19,19.50
2015,07,29,10,20,19.60
2015,07,29,10,21,19.70
2015,07,29,10,22,19.70
2015,07,29,10,23,19.80
2015,07,29,10,24,19.80
2015,07,29,10,25,19.90
2015,07,29,10,26,19.90
2015,07,29,10,27,20.00
2015,07,29,10,28,20.00
2015,07,29,10,29,20.10
2015,07,29,10,30,20.10
2015,07,29,10,31,20.20
2015,07,29,10,32,20.30
2015,07,29,10,33,20.30
2015,07,29,10,34,20.30
2015,07,29,10,35,20.40
2015,07,29,10,36,20.40
2015,07,29,10,37,20.50
2015,07,29,10,38,20.60
2015,07,29,10,39,20.70
2015,07,29,10,40,20.80
2015,07,29,10,41,20.90
2015,07,29,10,42,20.90
2015,07,29,10,43,21.00
2015,07,29,10,44,21.10
2015,07,29,10,45,21.10
2015,07,29,10,46,21.10
2015,07,29,10,47,21.10
2015,07,29,10,48,21.20
2015,07,29,10,49,21.20
2015,07,29,10,50,21.20
2015,07,29,10,51,21.30
2015,07,29,10,52,21.30
2015,07,29,10,53,21.30
2015,07,29,10,54,21.30
2015,07,29,10,55,21.40
2015,07,29,10,56,21.40
2015,07,29,10,57,21.50
2015,07,29,10,58,21.60
2015,07,29,10,59,21.60
2015,07,29,11,00,21.60
2015,07,29,11,01,21.60
2015,07,29,11,02,21.60
2015,07,29,11,03,21.60
2015,07,29,11,04,21.60
2015,07,29,11,05,21.60
2015,07,29,11,06,21.60
2015,07,29,11,07,21.60
2015,07,29,11,08,21.70
2015,07,29,11,09,21.70
2015,07,29,11,10,21.70
2015,07,29,11,11,21.70
2015,07,29,11,12,21.70
2015,07,29,11,13,21.60
2015,07,29,11,14,21.60
2015,07,29,11,15,21.50
2015,07,29,11,16,21.50
2015,07,29,11,17,21.40
2015,07,29,11,18,21.30
2015,07,29,11,19,21.20
2015,07,29,11,20,21.20
2015,07,29,11,21,21.10
2015,07,29,11,22,21.00
2015,07,29,11,23,20.80
2015,07,29,11,24,20.70
2015,07,29,11,25,20.60
2015,07,29,11,26,20.50
2015,07,29,11,27,20.40
2015,07,29,11,28,20.30
2015,07,29,11,29,20.30
2015,07,29,11,30,20.20
2015,07,29,11,31,20.20
2015,07,29,11,32,20.10
2015,07,29,11,33,20.10
2015,07,29,11,34,20.10
2015,07,29,11,35,20.00
2015,07,29,11,36,20.00
2015,07,29,11,37,19.90
2015,07,29,11,38,19.90
2015,07,29,11,39,19.80
2015,07,29,11,40,19.80
2015,07,29,11,41,19.70
2015,07,29,11,42,19.70
2015,07,29,11,43,19.70
2015,07,29,11,44,19.60
2015,07,29,11,45,19.60
2015,07,29,11,46,19.60
2015,07,29,11,47,19.60
2015,07,29,11,48,19.50
2015,07,29,11,49,19.50
2015,07,29,11,50,19.40
2015,07,29,11,51,19.40
2015,07,29,11,52,19.40
2015,07,29,11,53,19.30
2015,07,29,11,54,19.30
2015,07,29,11,55,19.30
2015,07,29,11,56,19.30
2015,07,29,11,57,19.30
2015,07,29,11,58,19.30
2015,07,29,11,59,19.30
2015,07,29,12,00,19.30
2015,07,29,12,01,19.30
2015,07,29,12,02,19.20
2015,07,29,12,03,19.20
2015,07,29,12,04,19.20
2015,07,29,12,05,19.20
2015,07,29,12,06,19.20
2015,07,29,12,07,19.20
2015,07,29,12,08,19.20
2015,07,29,12,09,19.20
2015,07,29,12,10,19.20
2015,07,29,12,11,19.20
2015,07,29,12,12,19.30
2015,07,29,12,13,19.30
2015,07,29,12,14,19.40
2015,07,29,12,15,19.50
2015,07,29,12,16,19.50
2015,07,29,12,17,19.60
2015,07,29,12,18,19.60
2015,07,29,12,19,19.60
2015,07,29,12,20,19.60
2015,07,29,12,21,19.60
2015,07,29,12,22,19.60
2015,07,29,12,23,19.60
2015,07,29,12,24,19.60
2015,07,29,12,25,19.60
2015,07,29,12,26,19.60
2015,07,29,12,27,19.60
2015,07,29,12,28,19.60
2015,07,29,12,29,19.70
2015,07,29,12,30,19.70
2015,07,29,12,31,19.80
2015,07,29,12,32,19.80
2015,07,29,12,33,19.80
2015,07,29,12,34,19.80
2015,07,29,12,35,19.80
2015,07,29,12,36,19.80
2015,07,29,12,37,19.90
2015,07,29,12,38,19.90
2015,07,29,12,39,20.00
2015,07,29,12,40,20.10
2015,07,29,12,41,20.20
2015,07,29,12,42,20.20
2015,07,29,12,43,20.30
2015,07,29,12,44,20.30
2015,07,29,12,45,20.40
2015,07,29,12,46,20.40
2015,07,29,12,47,20.40
2015,07,29,12,48,20.40
2015,07,29,12,49,20.40
2015,07,29,12,50,20.40
2015,07,29,12,51,20.40
2015,07,29,12,52,20.40
2015,07,29,12,53,20.40
2015,07,29,12,54,20.40
2015,07,29,12,55,20.40
2015,07,29,12,56,20.40
2015,07,29,12,57,20.30
2015,07,29,12,58,20.30
2015,07,29,12,59,20.30
2015,07,29,13,00,20.40
2015,07,29,13,01,20.40
2015,07,29,13,02,20.50
2015,07,29,13,03,20.50
2015,07,29,13,04,20.60
2015,07,29,13,05,20.70
2015,07,29,13,06,20.80
2015,07,29,13,07,20.80
2015,07,29,13,08,20.90
2015,07,29,13,09,20.90
2015,07,29,13,10,21.00
2015,07,29,13,11,21.00
2015,07,29,13,12,21.10
2015,07,29,13,13,21.10
2015,07,29,13,14,21.20
2015,07,29,13,15,21.30
2015,07,29,13,16,21.40
2015,07,29,13,17,21.50
2015,07,29,13,18,21.60
2015,07,29,13,19,21.60
2015,07,29,13,20,21.70
2015,07,29,13,21,21.80
2015,07,29,13,22,21.80
2015,07,29,13,23,21.90
2015,07,29,13,24,21.90
2015,07,29,13,25,21.90
2015,07,29,13,26,22.00
2015,07,29,13,27,22.10
2015,07,29,13,28,22.10
2015,07,29,13,29,22.20
2015,07,29,13,30,22.20
2015,07,29,13,31,22.20
2015,07,29,13,32,22.30
2015,07,29,13,33,22.30
2015,07,29,13,34,22.30
2015,07,29,13,35,22.40
2015,07,29,13,36,22.50
2015,07,29,13,37,22.60
2015,07,29,13,38,22.70
2015,07,29,13,39,22.70
2015,07,29,13,40,22.80
2015,07,29,13,41,22.90
2015,07,29,13,42,22.90
2015,07,29,13,43,23.00
2015,07,29,13,44,23.00
2015,07,29,13,45,23.10
2015,07,29,13,46,23.20
2015,07,29,13,47,23.30
2015,07,29,13,48,23.30
2015,07,29,13,49,23.30
2015,07,29,13,50,23.40
2015,07,29,13,51,23.40
2015,07,29,13,52,23.40
2015,07,29,13,53,23.50
2015,07,29,13,54,23.50
2015,07,29,13,55,23.50
2015,07,29,13,56,23.50
2015,07,29,13,57,23.50
2015,07,29,13,58,23.60
2015,07,29,13,59,23.70
2015,07,29,14,00,23.80
2015,07,29,14,01,23.80
2015,07,29,14,02,23.80
2015,07,29,14,03,23.80
2015,07,29,14,04,23.80
2015,07,29,14,05,23.80
2015,07,29,14,06,23.70
2015,07,29,14,07,23.60
2015,07,29,14,08,23.60
2015,07,29,14,09,23.50
2015,07,29,14,10,23.40
2015,07,29,14,11,23.30
2015,07,29,14,12,23.20
2015,07,29,14,13,23.10
2015,07,29,14,14,23.00
2015,07,29,14,15,22.90
2015,07,29,14,16,22.80
2015,07,29,14,17,22.70
2015,07,29,14,18,22.70
2015,07,29,14,19,22.60
2015,07,29,14,20,22.50
2015,07,29,14,21,22.40
2015,07,29,14,22,22.30
2015,07,29,14,23,22.30
2015,07,29,14,24,22.20
2015,07,29,14,25,22.20
2015,07,29,14,26,22.20
2015,07,29,14,27,22.20
2015,07,29,14,28,22.20
2015,07,29,14,29,22.20
2015,07,29,14,30,22.20
2015,07,29,14,31,22.20
2015,07,29,14,32,22.20
2015,07,29,14,33,22.20
2015,07,29,14,34,22.20
2015,07,29,14,35,22.30
2015,07,29,14,36,22.30
2015,07,29,14,37,22.30
2015,07,29,14,38,22.30
2015,07,29,14,39,22.30
2015,07,29,14,40,22.30
2015,07,29,14,41,22.40
2015,07,29,14,42,22.40
2015,07,29,14,43,22.50
2015,07,29,14,44,22.60
2015,07,29,14,45,22.60
2015,07,29,14,46,22.70
2015,07,29,14,47,22.80
2015,07,29,14,48,22.80
2015,07,29,14,49,22.90
2015,07,29,14,50,22.90
2015,07,29,14,51,23.00
2015,07,29,14,52,23.00
2015,07,29,14,53,23.10
2015,07,29,14,54,23.20
2015,07,29,14,55,23.30
2015,07,29,14,56,23.50
2015,07,29,14,57,23.60
2015,07,29,14,58,23.70
2015,07,29,14,59,23.80
2015,07,29,15,00,23.90
2015,07,29,15,01,24.10
2015,07,29,15,02,24.20
2015,07,29,15,03,24.30
2015,07,29,15,04,24.30
2015,07,29,15,05,24.30
2015,07,29,15,06,24.40
2015,07,29,15,07,24.40
2015,07,29,15,08,24.50
2015,07,29,15,09,24.50
2015,07,29,15,10,24.60
2015,07,29,15,11,24.60
2015,07,29,15,12,24.70
2015,07,29,15,13,24.70
2015,07,29,15,14,24.80
2015,07,29,15,15,24.80
2015,07,29,15,16,24.90
2015,07,29,15,17,24.90
2015,07,29,15,18,25.00
2015,07,29,15,19,25.00
2015,07,29,15,20,25.10
2015,07,29,15,21,25.10
2015,07,29,15,22,25.20
2015,07,29,15,23,25.20
2015,07,29,15,24,25.20
2015,07,29,15,25,25.30
2015,07,29,15,26,25.20
2015,07,29,15,27,25.20
2015,07,29,15,28,25.20
2015,07,29,15,29,25.20
2015,07,29,15,30,25.20
2015,07,29,15,31,25.10
2015,07,29,15,32,25.10
2015,07,29,15,33,25.10
2015,07,29,15,34,25.10
2015,07,29,15,35,25.10
2015,07,29,15,36,25.10
2015,07,29,15,37,25.10
2015,07,29,15,38,25.10
2015,07,29,15,39,25.10
2015,07,29,15,40,25.10
2015,07,29,15,41,25.10
2015,07,29,15,42,25.10
2015,07,29,15,43,25.10
2015,07,29,15,44,25.00
2015,07,29,15,45,25.00
2015,07,29,15,46,25.00
2015,07,29,15,47,25.10
2015,07,29,15,48,25.10
2015,07,29,15,49,25.10
2015,07,29,15,50,25.10
2015,07,29,15,51,25.10
2015,07,29,15,52,25.10
2015,07,29,15,53,25.10
2015,07,29,15,54,25.10
2015,07,29,15,55,25.20
2015,07,29,15,56,25.20
2015,07,29,15,57,25.30
2015,07,29,15,58,25.30
2015,07,29,15,59,25.30
2015,07,29,16,00,25.40
2015,07,29,16,01,25.40
2015,07,29,16,02,25.30
2015,07,29,16,03,25.30
2015,07,29,16,04,25.20
2015,07,29,16,05,25.10
2015,07,29,16,06,25.10
2015,07,29,16,07,25.00
2015,07,29,16,08,25.00
2015,07,29,16,09,25.00
2015,07,29,16,10,25.10
2015,07,29,16,11,25.10
2015,07,29,16,12,25.20
2015,07,29,16,13,25.30
2015,07,29,16,14,25.30
2015,07,29,16,15,25.40
2015,07,29,16,16,25.40
2015,07,29,16,17,25.40
2015,07,29,16,18,25.50
2015,07,29,16,19,25.50
2015,07,29,16,20,25.60
2015,07,29,16,21,25.60
2015,07,29,16,22,25.70
2015,07,29,16,23,25.70
2015,07,29,16,24,25.70
2015,07,29,16,25,25.80
2015,07,29,16,26,25.80
2015,07,29,16,27,25.90
2015,07,29,16,28,25.90
2015,07,29,16,29,26.00
2015,07,29,16,30,26.00
2015,07,29,16,31,26.10
2015,07,29,16,32,26.10
2015,07,29,16,33,26.20
2015,07,29,16,34,26.20
2015,07,29,16,35,26.20
2015,07,29,16,36,26.20
2015,07,29,16,37,26.20
2015,07,29,16,38,26.10
2015,07,29,16,39,26.00
2015,07,29,16,40,25.90
2015,07,29,16,41,25.80
2015,07,29,16,42,25.70
2015,07,29,16,43,25.70
2015,07,29,16,44,25.70
2015,07,29,16,45,25.70
2015,07,29,16,46,25.70
2015,07,29,16,47,25.70
2015,07,29,16,48,25.70
2015,07,29,16,49,25.70
2015,07,29,16,50,25.70
2015,07,29,16,51,25.60
2015,07,29,16,52,25.60
2015,07,29,16,53,25.60
2015,07,29,16,54,25.60
2015,07,29,16,55,25.60
2015,07,29,16,56,25.70
2015,07,29,16,57,25.70
2015,07,29,16,58,25.60
2015,07,29,16,59,25.50
2015,07,29,17,00,25.40
2015,07,29,17,01,25.10
2015,07,29,17,02,25.00
2015,07,29,17,03,24.80
2015,07,29,17,04,24.60
2015,07,29,17,05,24.40
2015,07,29,17,06,24.20
2015,07,29,17,07,24.00
2015,07,29,17,08,23.90
2015,07,29,17,09,23.80
2015,07,29,17,10,23.70
2015,07,29,17,11,23.60
2015,07,29,17,12,23.60
2015,07,29,17,13,23.60
2015,07,29,17,14,23.60
2015,07,29,17,15,23.50
2015,07,29,17,16,23.50
2015,07,29,17,17,23.50
2015,07,29,17,18,23.50
2015,07,29,17,19,23.50